User: anonymous   Login
Location: Bergfeld
(52.0500°N, 11.7833°E)
Time: 18:04:20
(UTC+00:00)
Language:

COSMOS 2428 - Orbit

View from above orbital plane
View from above orbital plane
View from above satellite
View from above satellite

Ground track
Ground track

The orbit data is extracted from the following two-line orbital elements,

1 31792U 07029A   20152.42638003 -.00000301  00000-0 -13755-3 0  9996
2 31792  70.9147 308.7315 0007039  82.6137 277.5783 14.12343674666467
Epoch (UTC): 31 May 2020 10:13:59
Eccentricity: 0.0007039
inclination: 70.9147°
perigee height: 846 km
apogee height: 856 km
right ascension of ascending node: 308.7315°
argument of perigee: 82.6137°
revolutions per day: 14.12343674
mean anomaly at epoch: 277.5783°
orbit number at epoch: 66646

The dashed part of the orbit path shows where the satellite is in the earth's shadow,  

DLR